Regional Weather Roundup
Issued by NWS Sterling, VA

Home | Current Version | Previous Version | Graphics & Text | Print | Product List | Glossary On
Versions: 1 2 3 4 5 6 7 8 9 10 11 12 13 14 15 16 17 18 19 20 21 22 23 24 25 26 27 28 29 30 31 32 33 34 35 36 37 38 39 40 41 42 43 44 45 46 47 48 49 50
988
ASUS41 KLWX 250210
RWRLWX

REGIONAL WEATHER ROUNDUP
NATIONAL WEATHER SERVICE BALTIMORE MD/WASHINGTON DC
1000 PM EDT WED AUG 24 2016

Note: "FAIR" indicates few or no clouds below 12,000 feet
with no significant weather and/or obstructions to visibility.
 TC=TEMPERATURE CELSIUS

 * =Non NWS site. Station does not report precipitation (e.g. rain,
    snow, etc.), thunder, or fog.

DCZ001-MDZ009-015-VAZ040>042-051-053>054-250300-
WASHINGTON METRO

CITY           SKY/WX    TMP DP  RH WIND       PRES   REMARKS
WASHINGTON NAT PTCLDY    77  62  59 S10       30.19F
DULLES         PTCLDY    75  64  68 S9        30.18S
ANDREWS AFB    CLEAR     70  61  72 S9        30.18F
FT BELVOIR     CLEAR     73  63  70 SE5       30.18F
QUANTICO       CLEAR     77  66  68 S13       30.19S
COLLEGE PARK*  CLEAR     73  59  60 CALM      30.18F
LEESBURG*      CLEAR     79  70  73 S12       30.19S
MANASSAS*      CLEAR     73  66  78 S5        30.18S
GAITHERSBURG*  CLEAR     73  63  68 S8        30.22F

$$

MDZ006>007-011-014-250300-
BALTIMORE METRO

CITY           SKY/WX    TMP DP  RH WIND       PRES   REMARKS
BWI AIRPORT    PTCLDY    74  61  63 S5        30.18F
MD SCIENCE CTR   N/A     77  62  59 MISG      30.18
MARTIN STATE   CLEAR     77  68  73 S6        30.19S
ANNAPOLIS      CLEAR     76  63  64 S3        30.18S
FORT MEADE*    CLEAR     66  63  88 CALM      30.20F

$$

MDZ012-015-019>023-250300-
MARYLAND EASTERN SHORE

CITY           SKY/WX    TMP DP  RH WIND       PRES   REMARKS
OCEAN CITY     CLEAR     75  62  64 S3        30.22S
SALISBURY      CLEAR     68  62  81 CALM      30.22R
BAY BRIDGE AP* CLEAR     77  63  61 S6        30.19S
CAMBRIDGE*     CLEAR     64  61  88 SE3       30.20S
EASTON*        CLEAR     72  65  78 S6        30.24S

$$

MDZ017>025-250300-
SOUTHERN MARYLAND

CITY           SKY/WX    TMP DP  RH WIND       PRES   REMARKS
PATUXENT RIVER CLEAR     73  60  63 S7        30.20S
ST INIGOES     CLEAR     75  63  66 S8        30.19S
LEONARDTOWN*   CLEAR     70  61  73 CALM      30.22S

$$

MDZ003>005-250300-
NORTH CENTRAL MARYLAND

CITY           SKY/WX    TMP DP  RH WIND       PRES   REMARKS
FREDERICK*     CLEAR     73  68  83 S5        30.20R
HAGERSTOWN APT CLEAR     77  65  66 SE9       30.16S

$$

MDZ501>502-250300-
WESTERN MARYLAND

CITY           SKY/WX    TMP DP  RH WIND       PRES   REMARKS
OAKLAND*       CLEAR     66  61  82 SW6       30.26R
CUMBERLAND*    CLEAR     77  64  65 CALM      30.18S

$$

VAZ025>031-250300-
SHENANDOAH VALLEY

CITY           SKY/WX    TMP DP  RH WIND       PRES   REMARKS
WINCHESTER*    CLEAR     75  64  69 S5        30.17S
FRONT ROYAL*   FAIR      75  68  78 S6        30.16S
LURAY*         FAIR      73  68  83 S3        30.18S
NEW MARKET*    FAIR     N/A N/A N/A SW3       30.16S
STAUNTON*      CLEAR     73  67  80 S6        30.22S
WAYNESBORO*    FAIR      73  66  80 CALM      30.22S

$$

WVZ021-048>050-054>055-250300-
EASTERN WEST VIRGINIA PANHANDLE

CITY           SKY/WX    TMP DP  RH WIND       PRES   REMARKS
MARTINSBURG    PTCLDY    73  66  78 S3        30.16R
PETERSBURG*    CLEAR     71  67  85 CALM      30.16R

$$

VAZ036>039-050-250300-
CENTRAL FOOTHILLS

CITY           SKY/WX    TMP DP  RH WIND       PRES   REMARKS
CHARLOTTESVILL CLEAR     75  67  76 SW3       30.19S
CULPEPER*      CLEAR     70  68  95 CALM      30.19S
ORANGE*          N/A     70  70 100 CALM      30.21S
GORDONSVILLE*  FAIR      70  68  94 CALM      30.18F
WARRENTON*     FAIR      74  62  67 SE3       30.18S

$$

VAZ055>057-250300-
NORTH AND CENTRAL PIEDMONT

CITY           SKY/WX    TMP DP  RH WIND       PRES   REMARKS
FREDERICKSBRG* CLEAR     73  66  79 SE7       30.18S
STAFFORD*      CLEAR     72  65  78 S6        30.23S

$$

NCZ024-NYZ072-PAZ021-071-VAZ022-071-250300-
OTHER REGIONAL OBSERVATIONS

CITY           SKY/WX    TMP DP  RH WIND       PRES   REMARKS
NEW YORK CITY    N/A     77  64  65 MISG        N/A
PHILADELPHIA   PTCLDY    75  61  61 S12       30.20R
PITTSBURGH     MOCLDY    77  64  64 S6        30.12S
ROANOKE        MOCLDY    76  69  79 SE5       30.23F
RICHMOND       PTCLDY    69  62  78 S5        30.21R
RALEIGH        PTCLDY    76  63  64 SE7       30.22S

$$

ANZ530>537-250300-
MARINE OBSERVATIONS

STATION/POSITION TIME  TEMP    WIND        PRES
                       AIR SEA DIR/SP/G
                 (UTC) (F)     (DEG/KT/KT) (MB)
THOMAS PT LIGHT  0200   80 82  180/ 16/ 17 1023.3S
BALT KEY BRIDGE  0142   77                   N/A
COVE POINT       0142   76                   N/A
LEWISETTA        0142   75 82                N/A
SOLOMONS ISLAND  0142   76 84                N/A
PINEY POINT      0130          190/ 13/ 15   N/A

$$





USA.gov is the U.S. government's official web portal to all federal, state and local government web resources and services.